Location: Franzen
(48.6167°N, 15.3833°E)
Time: 14:19:32
(UTC+00:00)

Transit 2A Rocket - Pass Details

Date: 08 August 2021
Orbit: 586 x 916 km, 66.7° (Epoch: 23 September)

Event Time Altitude Azimuth Distance (km) Brightness Sun altitude
Rises 20:55:58 0° 316° (NW) 3,320 9.8 -19.5°
Reaches altitude 10° 20:58:38 10° 305° (NW) 2,437 8.6 -19.7°
Maximum altitude 21:03:22 28° 249° (WSW) 1,570 6.7 -20.1°
Enters shadow 21:06:27 18° 205° (SSW) 2,024 6.9 -20.4°
